Tracking 19245 objects as of 14-Aug-2018
HD Live streaming from Space Station
objects crossing your sky now

NOAA 16 DEB

Track NOAA 16 DEB now!
10-day predictions


NORAD ID: 41081
Int'l Code: 2000-055AQ
Perigee: 745.6 km
Apogee: 963.9 km
Inclination: 99.1 °
Period: 101.9 minutes
Semi major axis: 7225 km
RCS: Unknown
Launch date: September 21, 2000
Source: United States (US)
Launch site: AIR FORCE WESTERN TEST RANGE (AFWTR)

Note: This is SATELLITE DEBRIS
aabbcc
Your satellite tracking list
Your tracking list is empty




NASA's NSSDC Master Catalog

Two Line Element Set (TLE):
1 41081U 00055AQ  18225.84623655 +.00000208 +00000-0 +12056-3 0  9998
2 41081 099.0937 324.6480 0151074 109.9679 251.7835 14.13453891139923
Source of the keplerian elements: AFSPC